M I D A S
Marine Information and Data Acquisition System
Tripno 1658 of the Zeeleeuw from 2009-03-13 12:05:30 to 2009-03-13 14:10:09
Back to CruiseResearch ActivitiesStationsMapUnderway DataData graphs

EquipmentUnitsComments
TimeDGPSUTC
LatitudeDGPSDM.mWGS84
LongitudeDGPSDM.mWGS84
SpeedMeteo Stationm/sRelative wind speed
DirectionMeteo StationdegRelative wind direction
TemperatureMeteo Stationdeg CelciusAir temperature
PressureMeteo StationPaAtmospheric pressure
HumidityMeteo Station%Relative humidity
Missing or incorrect values are displayed as -999
Metereological data collected by the RV Zeeleeuw from 2009-03-13 08:06:48 to 2009-03-13 14:20:20
Time Latitude Longitude Speed Direction Temperature Pressure Humidity
2009-03-13 08:07 51°13.662 2°55.96 1.8 22 8.7 102210 93
2009-03-13 08:08 51°13.662 2°55.96 1.5 23 8.6 102210 94
2009-03-13 08:09 51°13.662 2°55.96 1.8 20 8.6 102210 94
2009-03-13 08:10 51°13.661 2°55.96 1.4 24 8.6 102210 94
2009-03-13 08:11 51°13.671 2°55.932 2.3 23 8.7 102210 94
2009-03-13 08:12 51°13.694 2°55.863 2.5 23 8.8 102210 94
2009-03-13 08:13 51°13.703 2°55.79 1.6 26 8.8 102210 92
2009-03-13 08:14 51°13.708 2°55.768 1.6 23 8.8 102220 92
2009-03-13 08:15 51°13.706 2°55.757 1.9 246 8.9 102220 92
2009-03-13 08:16 51°13.74 2°55.726 4.4 325 8.9 102220 93
2009-03-13 08:17 51°13.836 2°55.632 5.6 325 8.9 102210 92
2009-03-13 08:18 51°13.966 2°55.535 7.3 328 8.9 102210 93
2009-03-13 08:19 51°14.103 2°55.438 7.6 323 8.9 102210 91
2009-03-13 08:20 51°14.225 2°55.309 6.8 321 8.8 102210 93
2009-03-13 08:21 51°14.324 2°55.136 5.9 325 8.6 102210 91
2009-03-13 08:22 51°14.421 2°54.931 7.3 321 8.5 102210 91
2009-03-13 08:23 51°14.53 2°54.694 7.6 320 8.3 102200 92
2009-03-13 08:24 51°14.654 2°54.429 6 320 8.2 102210 94
2009-03-13 08:25 51°14.75 2°54.141 7.7 320 8.1 102210 95
2009-03-13 08:26 51°14.818 2°53.834 8.1 322 8 102210 95
2009-03-13 08:27 51°14.848 2°53.515 7.4 327 8 102210 96
2009-03-13 08:28 51°14.811 2°53.192 9.1 328 7.9 102200 95
2009-03-13 08:29 51°14.781 2°52.856 7.4 327 7.9 102210 96
2009-03-13 08:30 51°14.762 2°52.528 9.4 327 7.8 102200 96
2009-03-13 08:31 51°14.747 2°52.188 9.7 326 7.8 102210 97
2009-03-13 08:32 51°14.739 2°51.855 9.7 327 7.8 102200 97
2009-03-13 08:33 51°14.732 2°51.51 7.6 326 7.8 102190 97
2009-03-13 08:34 51°14.759 2°51.175 9.3 326 7.8 102190 97
2009-03-13 08:35 51°14.784 2°50.894 5.2 324 7.8 102200 98
2009-03-13 08:36 51°14.763 2°50.748 4 333 7.8 102210 98
2009-03-13 08:37 51°14.738 2°50.693 2.9 345 7.8 102210 98
2009-03-13 08:38 51°14.72 2°50.663 2.7 347 7.8 102210 97
2009-03-13 08:39 51°14.704 2°50.637 2.4 348 7.7 102220 98
2009-03-13 08:40 51°14.688 2°50.613 2.4 351 7.7 102220 96
2009-03-13 08:41 51°14.672 2°50.589 2.1 351 7.7 102220 97
2009-03-13 08:42 51°14.657 2°50.567 2.1 352 7.6 102220 98
2009-03-13 08:43 51°14.635 2°50.545 2.5 354 7.6 102210 99
2009-03-13 08:44 51°14.607 2°50.536 2.8 9 7.5 102210 99
2009-03-13 08:45 51°14.584 2°50.545 2.3 26 7.5 102210 99
2009-03-13 08:46 51°14.58 2°50.57 0.9 43 7.5 102210 99
2009-03-13 08:47 51°14.608 2°50.613 0.1 23 7.6 102210 99
2009-03-13 08:48 51°14.657 2°50.665 1 27 7.8 102210 100
2009-03-13 08:49 51°14.72 2°50.712 1.4 24 7.9 102210 100
2009-03-13 08:50 51°14.807 2°50.756 2.3 316 8 102210 100
2009-03-13 08:51 51°14.892 2°50.798 1.4 19 8 102220 100
2009-03-13 08:52 51°14.963 2°50.829 1.2 28 8 102210 100
2009-03-13 08:53 51°15.012 2°50.846 1 26 8.2 102210 100
2009-03-13 08:54 51°15.052 2°50.857 0.4 256 8.3 102210 100
2009-03-13 08:55 51°15.067 2°50.854 1.3 19 8.4 102220 100
2009-03-13 08:56 51°15.058 2°50.834 1.7 26 8.4 102220 99
2009-03-13 08:57 51°15.045 2°50.812 1.6 26 8.3 102220 98
2009-03-13 08:58 51°15.032 2°50.793 1.5 36 8.2 102220 98
2009-03-13 08:59 51°15.07 2°50.884 2.1 327 8.2 102210 97
2009-03-13 09:00 51°15.188 2°50.975 3.1 318 8.2 102210 98
2009-03-13 09:01 51°15.337 2°51.074 4.2 321 8.1 102210 98
2009-03-13 09:02 51°15.483 2°51.175 2.7 316 8.1 102210 98
2009-03-13 09:03 51°15.535 2°51.176 1.2 257 8.2 102210 98
2009-03-13 09:04 51°15.55 2°51.163 1.4 26 8.2 102210 98
2009-03-13 09:05 51°15.552 2°51.154 1.3 21 8.1 102210 98
2009-03-13 09:06 51°15.546 2°51.144 1.7 20 8.2 102210 98
2009-03-13 09:07 51°15.534 2°51.133 1.9 20 8.1 102210 98
2009-03-13 09:08 51°15.533 2°51.139 0.4 25 8.1 102210 98
2009-03-13 09:09 51°15.57 2°51.124 2.7 25 8.1 102210 98
2009-03-13 09:10 51°15.7 2°51.114 3.7 319 8.1 102210 98
2009-03-13 09:11 51°15.79 2°51.251 3.9 346 8.1 102210 99
2009-03-13 09:12 51°15.697 2°51.412 6.6 338 8 102210 97
2009-03-13 09:13 51°15.525 2°51.398 6.1 337 8 102200 98
2009-03-13 09:14 51°15.342 2°51.368 6.9 340 8 102200 98
2009-03-13 09:15 51°15.162 2°51.336 6.8 339 8 102200 98
2009-03-13 09:16 51°14.977 2°51.328 6.5 340 8.1 102200 98
2009-03-13 09:17 51°14.806 2°51.391 5.4 341 8.1 102210 98
2009-03-13 09:18 51°14.639 2°51.472 5.9 341 8.1 102210 98
2009-03-13 09:19 51°14.496 2°51.549 3.9 345 8.1 102210 98
2009-03-13 09:20 51°14.427 2°51.572 2.1 1 8.1 102220 98
2009-03-13 09:21 51°14.412 2°51.555 1.6 17 8 102220 98
2009-03-13 09:22 51°14.409 2°51.533 1.7 17 8 102210 98
2009-03-13 09:23 51°14.405 2°51.512 2 21 7.9 102220 98
2009-03-13 09:24 51°14.399 2°51.489 1.9 24 8 102220 98
2009-03-13 09:25 51°14.392 2°51.466 1.9 27 7.9 102210 98
2009-03-13 09:26 51°14.385 2°51.442 1.5 28 7.9 102220 98
2009-03-13 09:27 51°14.377 2°51.418 1.8 31 8 102220 98
2009-03-13 09:28 51°14.368 2°51.392 1.5 31 7.9 102220 98
2009-03-13 09:29 51°14.359 2°51.366 1.5 31 8 102220 98
2009-03-13 09:30 51°14.349 2°51.34 1.7 33 8 102220 99
2009-03-13 09:31 51°14.339 2°51.312 1.6 34 8 102220 99
2009-03-13 09:32 51°14.328 2°51.284 1.4 36 8.1 102220 99
2009-03-13 09:33 51°14.316 2°51.256 1.4 37 8.1 102220 99
2009-03-13 09:34 51°14.305 2°51.228 1.5 37 8.1 102220 98
2009-03-13 09:35 51°14.293 2°51.201 1.4 37 8.1 102220 98
2009-03-13 09:36 51°14.281 2°51.173 1.6 36 8.1 102220 98
2009-03-13 09:37 51°14.269 2°51.146 1.5 35 8.2 102220 98
2009-03-13 09:38 51°14.258 2°51.119 1.6 33 8.2 102210 98
2009-03-13 09:39 51°14.247 2°51.092 1.6 29 8.2 102220 98
2009-03-13 09:40 51°14.236 2°51.066 1.7 27 8.1 102220 98
2009-03-13 09:41 51°14.223 2°51.048 1.7 16 8.1 102220 98
2009-03-13 09:42 51°14.224 2°51.097 0.2 12 8.1 102220 98
2009-03-13 09:43 51°14.293 2°51.135 2.2 321 8.2 102220 98
2009-03-13 09:44 51°14.413 2°51.208 3.8 323 8.2 102220 99
2009-03-13 09:45 51°14.55 2°51.299 3.6 321 8.3 102220 99
2009-03-13 09:46 51°14.629 2°51.383 0.6 8 8.3 102210 93
2009-03-13 09:47 51°14.613 2°51.45 2.3 8 8.3 102210 97
2009-03-13 09:48 51°14.556 2°51.477 3.4 352 8.2 102210 97
2009-03-13 09:49 51°14.48 2°51.468 3.9 343 8.1 102210 97
2009-03-13 09:50 51°14.41 2°51.421 4.4 337 8.1 102210 98
2009-03-13 09:51 51°14.356 2°51.359 4.4 337 8.2 102210 98
2009-03-13 09:52 51°14.311 2°51.298 4 331 8.2 102210 98
2009-03-13 09:53 51°14.274 2°51.232 3.9 328 8.2 102210 98
2009-03-13 09:54 51°14.244 2°51.157 3 323 8.2 102220 98
2009-03-13 09:55 51°14.221 2°51.079 3.7 322 8.3 102210 97
2009-03-13 09:56 51°14.199 2°50.999 3.6 324 8.3 102220 98
2009-03-13 09:57 51°14.174 2°50.914 3.9 325 8.3 102210 97
2009-03-13 09:58 51°14.149 2°50.827 4 324 8.3 102220 97
2009-03-13 09:59 51°14.127 2°50.739 3.4 323 8.3 102220 97
2009-03-13 10:00 51°14.108 2°50.649 4.2 321 8.2 102210 97
2009-03-13 10:01 51°14.093 2°50.556 3.6 319 8.3 102210 97
2009-03-13 10:02 51°14.081 2°50.466 4.2 320 8.3 102210 97
2009-03-13 10:03 51°14.069 2°50.374 3.4 320 8.3 102210 97
2009-03-13 10:04 51°14.056 2°50.284 3.6 322 8.3 102210 97
2009-03-13 10:05 51°14.043 2°50.19 4.3 322 8.4 102210 97
2009-03-13 10:06 51°14.028 2°50.099 4.2 323 8.4 102210 97
2009-03-13 10:07 51°14.009 2°50.009 3.5 325 8.4 102220 97
2009-03-13 10:08 51°13.984 2°49.922 4.1 327 8.4 102220 97
2009-03-13 10:09 51°13.955 2°49.836 4 328 8.4 102220 97
2009-03-13 10:10 51°13.924 2°49.752 3.2 324 8.4 102220 98
2009-03-13 10:11 51°13.898 2°49.664 3.1 323 8.4 102220 92
2009-03-13 10:12 51°13.878 2°49.574 3.6 322 8.4 102220 96
2009-03-13 10:13 51°13.862 2°49.484 2.7 319 8.4 102220 97
2009-03-13 10:14 51°13.844 2°49.394 3.5 323 8.4 102220 96
2009-03-13 10:15 51°13.825 2°49.304 3.4 324 8.4 102220 95
2009-03-13 10:16 51°13.805 2°49.213 2.2 325 8.4 102220 96
2009-03-13 10:17 51°13.785 2°49.125 3.7 324 8.4 102210 97
2009-03-13 10:18 51°13.761 2°49.04 3.9 328 8.4 102210 96
2009-03-13 10:19 51°13.728 2°48.961 3.3 330 8.4 102210 97
2009-03-13 10:20 51°13.695 2°48.881 3.2 326 8.5 102210 97
2009-03-13 10:21 51°13.677 2°48.8 4.1 27 8.5 102210 98
2009-03-13 10:22 51°13.678 2°48.721 3.2 19 8.5 102210 97
2009-03-13 10:23 51°13.693 2°48.656 2.9 254 8.5 102220 97
2009-03-13 10:24 51°13.711 2°48.621 1.9 28 8.5 102220 97
2009-03-13 10:25 51°13.725 2°48.608 1.5 20 8.4 102220 97
2009-03-13 10:26 51°13.734 2°48.618 1.7 41 8.4 102220 97
2009-03-13 10:27 51°13.739 2°48.644 1.4 40 8.4 102220 95
2009-03-13 10:28 51°13.75 2°48.672 1.1 44 8.3 102220 95
2009-03-13 10:29 51°13.764 2°48.702 1.2 27 8.3 102220 95
2009-03-13 10:30 51°13.778 2°48.737 1.1 21 8.3 102220 96
2009-03-13 10:31 51°13.792 2°48.775 1.3 26 8.3 102220 96
2009-03-13 10:32 51°13.807 2°48.813 1.5 25 8.2 102220 96
2009-03-13 10:33 51°13.822 2°48.852 1.4 21 8.2 102220 96
2009-03-13 10:34 51°13.837 2°48.892 1.3 23 8.2 102210 96
2009-03-13 10:35 51°13.852 2°48.933 1.4 26 8.1 102210 96
2009-03-13 10:36 51°13.871 2°48.978 1.1 27 8.1 102210 96
2009-03-13 10:37 51°13.916 2°49.082 0.8 352 8.1 102210 92
2009-03-13 10:38 51°13.98 2°49.248 3 341 8.1 102210 92
2009-03-13 10:39 51°14.061 2°49.481 3.8 339 8.1 102210 92
2009-03-13 10:40 51°14.148 2°49.734 4.4 340 8.1 102210 91
2009-03-13 10:41 51°14.228 2°49.993 4 340 8.1 102210 91
2009-03-13 10:42 51°14.311 2°50.249 3.3 339 8.1 102210 92
2009-03-13 10:43 51°14.393 2°50.504 3.2 338 8.1 102210 92
2009-03-13 10:44 51°14.462 2°50.771 3.2 341 8.1 102210 92
2009-03-13 10:45 51°14.526 2°51.042 3.1 341 8.2 102210 92
2009-03-13 10:46 51°14.589 2°51.315 3.7 340 8.2 102210 92
2009-03-13 10:47 51°14.644 2°51.593 3.5 337 8.2 102210 92
2009-03-13 10:48 51°14.677 2°51.884 4.4 341 8.2 102210 92
2009-03-13 10:49 51°14.699 2°52.181 3.9 343 8.2 102210 92
2009-03-13 10:50 51°14.692 2°52.483 4.4 341 8.2 102210 91
2009-03-13 10:51 51°14.675 2°52.785 4.9 343 8.2 102210 92
2009-03-13 10:52 51°14.661 2°53.079 2.2 345 8.2 102210 92
2009-03-13 10:53 51°14.659 2°53.379 4.1 336 8.2 102210 91
2009-03-13 10:54 51°14.668 2°53.679 3.9 337 8.1 102200 92
2009-03-13 10:55 51°14.654 2°53.987 4.1 340 8.2 102200 91
2009-03-13 10:56 51°14.6 2°54.284 6.1 337 8.2 102200 92
2009-03-13 10:57 51°14.523 2°54.571 6 337 8.2 102210 92
2009-03-13 10:58 51°14.433 2°54.848 5.1 340 8.3 102210 92
2009-03-13 10:59 51°14.331 2°55.117 5.8 336 8.4 102210 92
2009-03-13 11:00 51°14.218 2°55.317 4 346 8.4 102200 92
2009-03-13 11:01 51°14.103 2°55.44 2.7 345 8.5 102200 92
2009-03-13 11:02 51°13.996 2°55.514 2 334 8.5 102200 92
2009-03-13 11:03 51°13.898 2°55.581 1.1 337 8.6 102200 92
2009-03-13 11:04 51°13.823 2°55.635 0.3 331 8.7 102210 92
2009-03-13 11:05 51°13.763 2°55.705 0.3 326 8.8 102210 92
2009-03-13 11:06 51°13.71 2°55.806 1.3 318 9 102200 92
2009-03-13 11:07 51°13.672 2°55.905 1.9 27 9.1 102210 91
2009-03-13 11:08 51°13.665 2°55.951 1.1 28 9.2 102210 91
2009-03-13 11:09 51°13.662 2°55.958 1.6 28 9.3 102210 91
2009-03-13 11:10 51°13.663 2°55.959 1.9 22 9.4 102210 90
2009-03-13 11:11 51°13.663 2°55.959 1.6 22 9.5 102200 90
2009-03-13 11:12 51°13.663 2°55.959 1.2 22 9.5 102210 89
2009-03-13 11:13 51°13.662 2°55.958 0.1 44 9.6 102210 89
2009-03-13 11:14 51°13.664 2°55.959 0.6 45 9.7 102200 88
2009-03-13 11:15 51°13.665 2°55.959 0.3 9 9.8 102210 88
2009-03-13 11:16 51°13.665 2°55.958 0.1 26 9.9 102200 88
2009-03-13 11:17 51°13.664 2°55.959 0.3 327 10 102200 88
2009-03-13 11:18 51°13.664 2°55.959 1.3 267 10.1 102210 87
2009-03-13 11:19 51°13.665 2°55.96 0.9 258 10.3 102200 87
2009-03-13 11:20 51°13.662 2°55.959 1.4 268 10.4 102200 86
2009-03-13 11:21 51°13.66 2°55.958 1.1 25 10.4 102200 85
2009-03-13 11:22 51°13.663 2°55.959 1.3 28 10.4 102200 84
2009-03-13 11:23 51°13.664 2°55.96 1 19 10.3 102200 83
2009-03-13 11:24 51°13.665 2°55.96 1.2 23 10.3 102200 84
2009-03-13 11:25 51°13.663 2°55.959 1 26 10.4 102190 84
2009-03-13 11:26 51°13.664 2°55.959 0.9 26 10.4 102180 83
2009-03-13 11:27 51°13.664 2°55.959 0.7 25 10.5 102180 83
2009-03-13 11:28 51°13.664 2°55.959 0.7 22 10.6 102190 83
2009-03-13 11:29 51°13.661 2°55.958 0.5 26 10.7 102180 83
2009-03-13 11:30 51°13.664 2°55.96 1 344 10.9 102190 82
2009-03-13 11:31 51°13.666 2°55.961 2.4 349 10.8 102190 80
2009-03-13 11:32 51°13.665 2°55.96 2.2 354 10.6 102180 75
2009-03-13 11:33 51°13.664 2°55.959 2.3 334 10.6 102180 73
2009-03-13 11:34 51°13.666 2°55.96 2.3 342 10.7 102180 73
2009-03-13 11:35 51°13.663 2°55.959 1 354 10.7 102180 73
2009-03-13 11:36 51°13.664 2°55.959 2.3 16 10.9 102180 72
2009-03-13 11:37 51°13.663 2°55.96 2.5 7 10.9 102180 72
2009-03-13 11:38 51°13.663 2°55.96 1.7 18 11 102170 73
2009-03-13 11:39 51°13.662 2°55.96 3.8 10 11 102170 73
2009-03-13 11:40 51°13.664 2°55.96 2.3 5 10.9 102170 71
2009-03-13 11:41 51°13.665 2°55.96 0.9 31 10.9 102170 72
2009-03-13 11:42 51°13.663 2°55.959 3.2 350 10.9 102170 72
2009-03-13 11:43 51°13.662 2°55.958 2.1 3 11 102170 72
2009-03-13 11:44 51°13.663 2°55.959 2.1 350 11 102170 71
2009-03-13 11:45 51°13.664 2°55.959 2.5 347 11 102170 70
2009-03-13 11:46 51°13.661 2°55.958 2.3 1 11 102160 71
2009-03-13 11:47 51°13.664 2°55.958 1.2 347 11 102170 71
2009-03-13 11:48 51°13.666 2°55.958 1.7 20 11 102160 69
2009-03-13 11:49 51°13.665 2°55.959 2.1 360 11 102160 69
2009-03-13 11:50 51°13.664 2°55.958 1.4 357 11.1 102160 70
2009-03-13 11:51 51°13.664 2°55.958 1.5 349 11.1 102150 71
2009-03-13 11:52 51°13.664 2°55.959 1.2 8 11.1 102150 71
2009-03-13 11:53 51°13.664 2°55.959 1.7 13 11.2 102150 71
2009-03-13 11:54 51°13.664 2°55.959 2.5 357 11.2 102150 69
2009-03-13 11:55 51°13.664 2°55.959 1.3 36 11.3 102160 68
2009-03-13 11:56 51°13.663 2°55.959 2.2 27 11.4 102160 67
2009-03-13 11:57 51°13.663 2°55.96 1.5 28 11.4 102160 67
2009-03-13 11:58 51°13.662 2°55.959 1 25 11.5 102160 66
2009-03-13 11:59 51°13.671 2°55.933 2.1 27 11.5 102160 66
2009-03-13 12:00 51°13.688 2°55.863 3.7 26 11.4 102150 66
2009-03-13 12:01 51°13.698 2°55.794 4.4 44 11.3 102150 67
2009-03-13 12:02 51°13.701 2°55.758 3 26 11.1 102150 68
2009-03-13 12:03 51°13.712 2°55.765 2.1 45 11.1 102140 68
2009-03-13 12:04 51°13.711 2°55.758 2.3 21 11.1 102140 68
2009-03-13 12:05 51°13.757 2°55.711 1.8 19 11.2 102140 67
2009-03-13 12:06 51°13.854 2°55.599 4 321 11.2 102130 67
2009-03-13 12:07 51°13.986 2°55.514 4.4 329 11.3 102130 67
2009-03-13 12:08 51°14.12 2°55.426 6.2 327 11.2 102130 71
2009-03-13 12:09 51°14.236 2°55.292 6.4 328 10.7 102130 75
2009-03-13 12:10 51°14.332 2°55.107 6.3 328 10.2 102120 80
2009-03-13 12:11 51°14.429 2°54.889 6.4 335 9.8 102120 81
2009-03-13 12:12 51°14.432 2°54.605 7.4 333 9.5 102120 84
2009-03-13 12:13 51°14.377 2°54.338 5.5 334 9.2 102120 86
2009-03-13 12:14 51°14.285 2°54.093 5.5 334 9.1 102120 87
2009-03-13 12:15 51°14.205 2°53.837 6.5 334 9 102120 87
2009-03-13 12:16 51°14.129 2°53.579 6.6 335 8.9 102110 88
2009-03-13 12:17 51°14.052 2°53.321 6.5 333 8.9 102110 88
2009-03-13 12:18 51°13.977 2°53.062 6.5 331 8.9 102110 88
2009-03-13 12:19 51°13.9 2°52.806 6.5 331 8.9 102100 88
2009-03-13 12:20 51°13.818 2°52.556 5.9 335 9 102100 88
2009-03-13 12:21 51°13.736 2°52.307 6.3 330 9 102100 88
2009-03-13 12:22 51°13.655 2°52.057 5.6 332 8.9 102100 88
2009-03-13 12:23 51°13.572 2°51.813 6.1 329 9 102100 88
2009-03-13 12:24 51°13.489 2°51.57 5.9 330 9 102100 86
2009-03-13 12:25 51°13.412 2°51.323 6.4 330 9.2 102090 85
2009-03-13 12:26 51°13.331 2°51.08 6.1 329 9.3 102100 83
2009-03-13 12:27 51°13.244 2°50.843 7 329 9.4 102090 83
2009-03-13 12:28 51°13.156 2°50.609 6.8 326 9.5 102090 79
2009-03-13 12:29 51°13.082 2°50.381 6.4 327 9.7 102100 77
2009-03-13 12:30 51°13 2°50.141 6.6 329 9.9 102090 77
2009-03-13 12:31 51°12.901 2°49.927 5.9 331 9.9 102090 76
2009-03-13 12:32 51°12.846 2°49.81 3 322 10 102100 76
2009-03-13 12:33 51°12.842 2°49.767 1.4 321 10.1 102100 76
2009-03-13 12:34 51°12.862 2°49.764 0.9 20 10.2 102090 76
2009-03-13 12:35 51°12.885 2°49.777 0.3 253 10.5 102100 75
2009-03-13 12:36 51°12.91 2°49.795 0.6 253 10.7 102090 75
2009-03-13 12:37 51°12.923 2°49.792 0.6 26 10.9 102090 74
2009-03-13 12:38 51°12.929 2°49.807 0.4 318 11.1 102090 74
2009-03-13 12:39 51°12.938 2°49.832 -999 318 11.3 102090 73
2009-03-13 12:40 51°12.948 2°49.863 0.2 335 11.5 102090 72
2009-03-13 12:41 51°12.95 2°49.88 2 321 11.7 102090 72
2009-03-13 12:42 51°12.865 2°49.81 7.7 325 11.6 102080 70
2009-03-13 12:43 51°12.716 2°49.709 9.3 322 11.3 102070 68
2009-03-13 12:44 51°12.582 2°49.628 6.5 320 11.3 102060 68
2009-03-13 12:45 51°12.534 2°49.632 4.2 322 11.3 102080 69
2009-03-13 12:46 51°12.536 2°49.656 3.2 22 11.2 102070 69
2009-03-13 12:47 51°12.55 2°49.682 3.8 21 11.3 102070 69
2009-03-13 12:48 51°12.569 2°49.713 4.8 257 11.4 102070 69
2009-03-13 12:49 51°12.59 2°49.748 1.8 261 11.5 102070 69
2009-03-13 12:50 51°12.612 2°49.786 2.3 270 11.4 102070 69
2009-03-13 12:51 51°12.634 2°49.827 2.5 260 11.4 102070 69
2009-03-13 12:52 51°12.657 2°49.87 2.2 28 11.4 102070 69
2009-03-13 12:53 51°12.68 2°49.916 2.1 29 11.3 102070 69
2009-03-13 12:54 51°12.704 2°49.963 4.4 22 11.2 102070 69
2009-03-13 12:55 51°12.729 2°50.012 2.4 22 11.1 102070 69
2009-03-13 12:56 51°12.755 2°50.063 2.2 20 11 102060 69
2009-03-13 12:57 51°12.779 2°50.115 1.5 25 11.1 102060 70
2009-03-13 12:58 51°12.804 2°50.169 1.9 42 11.4 102060 69
2009-03-13 12:59 51°12.828 2°50.223 1.7 36 11.4 102060 69
2009-03-13 13:00 51°12.851 2°50.277 2.4 44 11.4 102060 69
2009-03-13 13:01 51°12.875 2°50.334 1.6 38 11.4 102060 70
2009-03-13 13:02 51°12.88 2°50.496 5.9 342 11.3 102060 70
2009-03-13 13:03 51°12.794 2°50.495 7 326 11.2 102050 72
2009-03-13 13:04 51°12.708 2°50.294 8.1 322 11.3 102050 71
2009-03-13 13:05 51°12.622 2°50.073 8.5 323 11.4 102050 71
2009-03-13 13:06 51°12.535 2°49.852 11 325 11.4 102040 71
2009-03-13 13:07 51°12.44 2°49.641 9.8 325 11.4 102050 71
2009-03-13 13:08 51°12.339 2°49.433 6.9 319 11.4 102050 71
2009-03-13 13:09 51°12.262 2°49.265 4.9 319 11.3 102050 71
2009-03-13 13:10 51°12.227 2°49.203 3.3 317 11.3 102060 72
2009-03-13 13:11 51°12.213 2°49.152 3.6 23 11.3 102060 72
2009-03-13 13:12 51°12.231 2°49.085 4 251 11.3 102060 72
2009-03-13 13:13 51°12.29 2°49.041 2 256 11.3 102060 73
2009-03-13 13:14 51°12.363 2°49.052 1.8 28 11.2 102060 73
2009-03-13 13:15 51°12.423 2°49.104 1 19 11.2 102060 74
2009-03-13 13:16 51°12.471 2°49.182 1.9 26 11.2 102060 74
2009-03-13 13:17 51°12.508 2°49.271 2.2 28 11.2 102060 74
2009-03-13 13:18 51°12.545 2°49.362 1.5 25 11.1 102050 74
2009-03-13 13:19 51°12.583 2°49.453 1.7 24 11 102050 74
2009-03-13 13:20 51°12.62 2°49.544 1.6 21 11 102050 74
2009-03-13 13:21 51°12.658 2°49.635 1.6 16 11 102040 74
2009-03-13 13:22 51°12.696 2°49.724 1.6 21 10.9 102030 74
2009-03-13 13:23 51°12.734 2°49.814 1.3 13 10.9 102040 74
2009-03-13 13:24 51°12.772 2°49.904 1.5 29 10.9 102030 75
2009-03-13 13:25 51°12.811 2°49.994 2.7 24 10.9 102030 75
2009-03-13 13:26 51°12.849 2°50.085 4.5 31 10.9 102030 74
2009-03-13 13:27 51°12.888 2°50.177 2.4 31 10.9 102030 74
2009-03-13 13:28 51°12.927 2°50.268 2.2 31 11 102030 74
2009-03-13 13:29 51°12.965 2°50.36 2.4 32 11.1 102030 73
2009-03-13 13:30 51°13.004 2°50.452 2 26 11.2 102030 73
2009-03-13 13:31 51°13.044 2°50.544 2 27 11.3 102030 73
2009-03-13 13:32 51°13.083 2°50.637 1.9 27 11.3 102030 73
2009-03-13 13:33 51°13.122 2°50.729 2.7 23 11.3 102020 73
2009-03-13 13:34 51°13.162 2°50.821 2.2 27 11.2 102020 73
2009-03-13 13:35 51°13.203 2°50.91 2.4 29 11.2 102010 73
2009-03-13 13:36 51°13.249 2°50.989 2.2 31 11.2 102000 73
2009-03-13 13:37 51°13.299 2°51.06 2.2 33 11.1 101990 73
2009-03-13 13:38 51°13.351 2°51.127 2 33 11.1 102000 74
2009-03-13 13:39 51°13.404 2°51.197 1.5 28 11.1 102000 73
2009-03-13 13:40 51°13.453 2°51.279 2.2 31 11.1 102000 73
2009-03-13 13:41 51°13.495 2°51.371 3.1 26 11.2 102010 73
2009-03-13 13:42 51°13.532 2°51.468 4.8 31 11.1 102010 73
2009-03-13 13:43 51°13.57 2°51.566 3.9 31 11 102010 73
2009-03-13 13:44 51°13.607 2°51.664 4.1 37 11 102010 73
2009-03-13 13:45 51°13.643 2°51.762 3.1 30 11.1 102010 72
2009-03-13 13:46 51°13.676 2°51.862 3.8 21 11.1 102010 73
2009-03-13 13:47 51°13.691 2°51.976 4.6 357 11 102010 73
2009-03-13 13:48 51°13.69 2°52.072 4.7 352 11 102000 73
2009-03-13 13:49 51°13.695 2°52.15 3.9 357 10.9 102000 73
2009-03-13 13:50 51°13.706 2°52.223 3.9 356 11 102000 73
2009-03-13 13:51 51°13.721 2°52.289 2.4 357 10.9 102010 74
2009-03-13 13:52 51°13.739 2°52.352 2.7 1 10.8 102000 75
2009-03-13 13:53 51°13.757 2°52.411 3.4 7 10.8 101990 75
2009-03-13 13:54 51°13.776 2°52.466 2.6 4 10.8 102000 72
2009-03-13 13:55 51°13.797 2°52.52 2.3 6 10.9 101990 71
2009-03-13 13:56 51°13.818 2°52.573 3 10 11.1 101990 71
2009-03-13 13:57 51°13.839 2°52.623 4.6 10 11.1 101990 71
2009-03-13 13:58 51°13.86 2°52.67 4.3 7 11.2 101990 70
2009-03-13 13:59 51°13.88 2°52.731 4.9 11 11.1 101990 70
2009-03-13 14:00 51°13.913 2°52.827 3.5 25 11.2 102000 70
2009-03-13 14:01 51°13.962 2°52.941 3.1 23 11.2 101990 70
2009-03-13 14:02 51°14.016 2°53.074 3.8 14 11.3 101990 70
2009-03-13 14:03 51°14.081 2°53.236 3.2 4 11.3 101990 69
2009-03-13 14:04 51°14.159 2°53.432 6.3 8 11.3 101980 69
2009-03-13 14:05 51°14.256 2°53.674 5.2 6 11.2 101980 69
2009-03-13 14:06 51°14.373 2°53.954 5.1 358 11.2 101980 69
2009-03-13 14:07 51°14.48 2°54.29 6.2 356 11.3 101980 69
2009-03-13 14:08 51°14.458 2°54.635 8.1 346 11.3 101980 68
2009-03-13 14:09 51°14.379 2°54.957 7.8 351 11.3 101980 69
2009-03-13 14:10 51°14.276 2°55.219 5.6 341 11.3 101990 69
2009-03-13 14:11 51°14.185 2°55.355 7.8 339 11.4 101980 69
2009-03-13 14:12 51°14.113 2°55.418 5.8 336 11.6 101970 68
2009-03-13 14:13 51°14.065 2°55.452 6.1 336 11.7 101970 68
2009-03-13 14:14 51°14.013 2°55.489 6.4 335 11.8 101970 68
2009-03-13 14:15 51°13.913 2°55.558 6.6 334 11.9 101970 68
2009-03-13 14:16 51°13.827 2°55.625 6.1 330 12 101960 68
2009-03-13 14:17 51°13.747 2°55.72 10.2 346 12 101960 68
2009-03-13 14:18 51°13.7 2°55.823 5 345 11.9 101950 69
2009-03-13 14:19 51°13.675 2°55.907 4.6 353 11.8 101950 69